Home > Weather > Edinburgh > Past weeks

Flag for United Kingdom Past Weather in Edinburgh, Scotland, United Kingdom — Yesterday and Last 2 Weeks

Now
63 °F

Partly sunny.


Feels Like: 63 °F
Forecast: 53 / 63 °F
Wind: 17 mph from West

Location: Edinburgh Airport

Current Time: Jul 25, 2016 at 5:15:19 PM

Latest Report: Jul 25, 2016 at 4:20 PM


Visibility: N/A

Pressure: 29.95 "Hg

Humidity: 73%

Dew Point: 54 °F

Location of EdinburghLocation

Past Weather in Edinburgh — Graph

°F

Edinburgh Temperature Yesterday

Maximum temperature yesterday: 66 °F (at 2:20 PM)
Minimum temperature yesterday: 57 °F (at 11:50 PM)
Average temperature yesterday: 61 °F

High & Low Weather Summary for the Past Weeks

 TemperatureHumidityPressure
High75 °F (Jul 18, 3:20 PM)100% (Jul 11, 5:50 AM)30.21 "Hg (Jul 11, 5:50 AM)
Low48 °F (Jul 14, 4:20 AM)46% (Jul 14, 3:50 PM)29.39 "Hg (Jul 11, 1:50 AM)
Average60 °F81%29.95 "Hg
* Reported Jul 10 4:20 PM — Jul 25 4:20 PM, Edinburgh, Weather by CustomWeather, © 2016

Note: Actual official high and low records may vary slightly from our data, if they occured in-between our weather recording intervals... More about our weather records

Advertising

Edinburgh Weather History for the Previous 24 Hours

Scroll right to see more
 ConditionsComfort  
Time TempWeatherWind HumidityBarometerVisibility
4:20 PM
Mon, Jul 25
63 °FPartly sunny.17 mph73%29.95 "HgN/A
3:50 PM61 °FLight rain. Partly sunny.15 mph77%29.95 "HgN/A
3:20 PM63 °FPartly sunny.22 mph73%29.95 "HgN/A
2:50 PM63 °FScattered clouds.18 mph73%29.95 "HgN/A
2:20 PM63 °FPartly sunny.17 mph77%29.95 "HgN/A
1:50 PM61 °FPartly sunny.17 mph83%29.95 "HgN/A
1:20 PM57 °FSprinkles. Partly sunny.14 mph88%29.92 "HgN/A
12:50 PM63 °FLight rain. Broken clouds.17 mph73%29.92 "HgN/A
12:20 PM63 °FPartly sunny.20 mph73%29.92 "HgN/A
11:50 AM63 °FPartly sunny.18 mph73%29.92 "HgN/A
11:20 AM63 °FPartly sunny.16 mph73%29.92 "HgN/A
10:50 AM63 °FPartly sunny.17 mph73%29.89 "HgN/A
10:20 AM61 °FPartly sunny.20 mph77%29.89 "HgN/A
9:50 AM59 °FScattered clouds.18 mph82%29.89 "HgN/A
9:20 AM59 °FSprinkles. Broken clouds.16 mph82%29.92 "HgN/A
8:50 AM59 °FPartly sunny.14 mph88%29.92 "HgN/A
8:20 AM57 °FPartly sunny.15 mph88%29.92 "HgN/A
7:50 AM57 °FPartly sunny.14 mph88%29.89 "HgN/A
7:20 AM57 °FPartly sunny.14 mph88%29.89 "HgN/A
6:50 AM57 °FBroken clouds.12 mph88%29.89 "HgN/A
6:20 AM55 °FMostly cloudy.6 mph94%29.89 "HgN/A
5:50 AM52 °FPassing clouds.8 mph100%29.89 "HgN/A
5:20 AM50 °FPassing clouds.7 mph100%29.89 "HgN/A
4:50 AM52 °FPassing clouds.6 mph94%29.89 "HgN/A
4:20 AM54 °FCool.7 mph94%29.89 "HgN/A
3:50 AM55 °FPassing clouds.9 mph94%29.89 "HgN/A
3:20 AM55 °FPassing clouds.9 mph94%29.89 "HgN/A
2:50 AM57 °FCool.10 mph94%29.89 "HgN/A
2:20 AM57 °FPassing clouds.7 mph94%29.89 "HgN/A
1:50 AM57 °FLight rain. Partly cloudy.6 mph100%29.89 "HgN/A
1:20 AM57 °FLight rain. Passing clouds.6 mph100%29.89 "Hg4 mi
12:50 AM57 °FLight rain. Passing clouds.8 mph100%29.89 "Hg4 mi
12:20 AM57 °FLight rain. Mostly cloudy.5 mph100%29.89 "HgN/A
11:50 PM
Sun, Jul 24
57 °FLight rain. Mostly cloudy.3 mph100%29.89 "Hg5 mi
11:20 PM59 °FLight rain. Passing clouds.3 mph94%29.89 "Hg4 mi
10:50 PM59 °FLight rain. Partly cloudy.3 mph94%29.89 "Hg5 mi
10:20 PM59 °FDrizzle. Broken clouds.1 mph94%29.89 "Hg3 mi
9:50 PM59 °FScattered showers. Broken clouds.2 mph94%29.89 "HgN/A
9:20 PM59 °FLight rain. Partly sunny.No wind94%29.89 "Hg6 mi
8:50 PM59 °FLight rain. Partly sunny.3 mph94%29.89 "Hg3 mi
8:20 PM61 °FSprinkles. Broken clouds.8 mph88%29.89 "HgN/A
7:50 PM64 °FScattered clouds.8 mph83%29.86 "HgN/A
7:20 PM64 °FPartly sunny.8 mph83%29.86 "HgN/A
6:50 PM64 °FBroken clouds.7 mph83%29.89 "HgN/A
6:20 PM63 °FPartly sunny.5 mph94%29.89 "HgN/A
5:50 PM61 °FPartly sunny.6 mph100%29.89 "HgN/A
5:20 PM63 °FPartly sunny.1 mph94%29.89 "HgN/A
Weather by CustomWeather, © 2016

See weather overviewHow to use our weather pages